| time (UTC) | temp F | wind direction | speed MPH | gust MPH | rain 1hr in | rain 24hr in | rain mn in | humidity % | barometer mb |
| 20260504100109 | 50 | 300 | 1.0 | 1.0 | 0.00 | 0.00 | 0.00 | 96 | 1017.8 |
| 20260504081051 | 50 | 317 | 1.0 | 2.0 | 0.00 | 0.00 | 0.00 | 94 | 1018.0 |
| 20260504050019 | 58 | 327 | 1.0 | 2.0 | 0.00 | 0.00 | 0.00 | 83 | 1019.0 |
| 20260504045019 | 59 | 329 | 1.0 | 2.0 | 0.00 | 0.00 | 0.00 | 82 | 1019.0 |
| 20260504044020 | 58 | 330 | 2.0 | 3.0 | 0.00 | 0.00 | 0.00 | 83 | 1019.0 |
| 20260504043023 | 58 | 315 | 1.0 | 2.0 | 0.00 | 0.00 | 0.00 | 83 | 1019.0 |
| 20260504042023 | 58 | 303 | 1.0 | 2.0 | 0.00 | 0.00 | 0.00 | 83 | 1019.0 |
| 20260504041025 | 59 | 310 | 1.0 | 2.0 | 0.00 | 0.00 | 0.00 | 82 | 1018.9 |
| 20260504040023 | 59 | 329 | 2.0 | 2.0 | 0.00 | 0.00 | 0.00 | 82 | 1018.9 |
| 20260504035023 | 60 | 331 | 2.0 | 2.0 | 0.00 | 0.00 | 0.00 | 81 | 1018.9 |
| 20260504034023 | 60 | 324 | 2.0 | 3.0 | 0.00 | 0.00 | 0.00 | 79 | 1018.9 |
| 20260504033024 | 60 | 337 | 2.0 | 2.0 | 0.00 | 0.00 | 0.00 | 79 | 1018.9 |
| 20260504032024 | 60 | 306 | 1.0 | 2.0 | 0.00 | 0.00 | 0.00 | 79 | 1018.9 |
| 20260504031023 | 60 | 322 | 1.0 | 2.0 | 0.00 | 0.00 | 0.00 | 79 | 1019.0 |
| 20260504025021 | 60 | 304 | 1.0 | 1.0 | 0.00 | 0.00 | 0.00 | 80 | 1019.0 |
| 20260504024022 | 60 | 314 | 1.0 | 2.0 | 0.00 | 0.00 | 0.00 | 80 | 1018.9 |
| 20260504023022 | 61 | 316 | 1.0 | 2.0 | 0.00 | 0.00 | 0.00 | 81 | 1018.8 |
| 20260504022022 | 61 | 296 | 1.0 | 2.0 | 0.00 | 0.00 | 0.00 | 79 | 1018.7 |
| 20260504021022 | 62 | 305 | 1.0 | 1.0 | 0.00 | 0.00 | 0.00 | 77 | 1018.5 |
| 20260504020022 | 63 | 306 | 1.0 | 2.0 | 0.00 | 0.00 | 0.00 | 76 | 1018.5 |
| 20260504015022 | 65 | 296 | 1.0 | 1.0 | 0.00 | 0.00 | 0.00 | 74 | 1018.2 |
| 20260504014022 | 67 | 307 | 1.0 | 1.0 | 0.00 | 0.00 | 0.00 | 71 | 1018.1 |
| 20260504013023 | 68 | 312 | 1.0 | 2.0 | 0.00 | 0.00 | 0.00 | 67 | 1018.1 |
| 20260504012022 | 69 | 277 | 1.0 | 2.0 | 0.00 | 0.00 | 0.00 | 65 | 1017.9 |
| 20260504011023 | 69 | 228 | 1.0 | 3.0 | 0.00 | 0.00 | 0.00 | 66 | 1017.8 |
| 20260504010023 | 69 | 238 | 2.0 | 4.0 | 0.00 | 0.00 | 0.00 | 67 | 1017.8 |
| 20260504005023 | 69 | 239 | 2.0 | 4.0 | 0.00 | 0.00 | 0.00 | 69 | 1017.8 |
| 20260504004021 | 69 | 226 | 2.0 | 6.0 | 0.00 | 0.00 | 0.00 | 66 | 1017.7 |
| 20260504003023 | 69 | 221 | 2.0 | 4.0 | 0.00 | 0.00 | 0.00 | 66 | 1017.7 |
| 20260504002024 | 70 | 222 | 2.0 | 5.0 | 0.00 | 0.00 | 0.00 | 65 | 1017.6 |
| 20260504001024 | 70 | 219 | 2.0 | 4.0 | 0.00 | 0.00 | 0.00 | 64 | 1017.5 |
| 20260504000024 | 70 | 241 | 2.0 | 4.0 | 0.00 | 0.00 | 0.00 | 63 | 1017.6 |
| 20260503235024 | 71 | 228 | 2.0 | 4.0 | 0.00 | 0.00 | 0.00 | 63 | 1017.6 |
| 20260503234024 | 71 | 225 | 2.0 | 5.0 | 0.00 | 0.00 | 0.00 | 62 | 1017.6 |
| 20260503233021 | 71 | 219 | 3.0 | 7.0 | 0.00 | 0.00 | 0.00 | 60 | 1017.5 |
| 20260503232045 | 72 | 224 | 2.0 | 4.0 | 0.00 | 0.00 | 0.00 | 59 | 1017.6 |
| 20260503231044 | 72 | 225 | 1.0 | 3.0 | 0.00 | 0.00 | 0.00 | 59 | 1017.6 |
| 20260503230022 | 73 | 212 | 3.0 | 6.0 | 0.00 | 0.00 | 0.00 | 58 | 1017.6 |
| 20260503225022 | 73 | 231 | 2.0 | 5.0 | 0.00 | 0.00 | 0.00 | 56 | 1017.7 |
| 20260503224022 | 73 | 214 | 2.0 | 7.0 | 0.00 | 0.00 | 0.00 | 55 | 1017.6 |
| 20260503223022 | 73 | 215 | 2.0 | 7.0 | 0.00 | 0.00 | 0.00 | 53 | 1017.6 |
| 20260503222022 | 73 | 219 | 3.0 | 7.0 | 0.00 | 0.00 | 0.00 | 50 | 1017.5 |
| 20260503221022 | 73 | 214 | 2.0 | 7.0 | 0.00 | 0.00 | 0.00 | 50 | 1017.5 |
| 20260503220023 | 73 | 223 | 3.0 | 7.0 | 0.00 | 0.00 | 0.00 | 52 | 1017.6 |
| 20260503215017 | 74 | 213 | 3.0 | 7.0 | 0.00 | 0.00 | 0.00 | 53 | 1017.7 |
| 20260503214017 | 74 | 200 | 3.0 | 8.0 | 0.00 | 0.00 | 0.00 | 53 | 1017.8 |
| 20260503213023 | 74 | 204 | 3.0 | 8.0 | 0.00 | 0.00 | 0.00 | 52 | 1018.0 |
| 20260503212020 | 74 | 214 | 3.0 | 8.0 | 0.00 | 0.00 | 0.00 | 52 | 1018.0 |
| 20260503211018 | 74 | 214 | 3.0 | 7.0 | 0.00 | 0.00 | 0.00 | 51 | 1018.2 |
| 20260503210018 | 74 | 221 | 3.0 | 7.0 | 0.00 | 0.00 | 0.00 | 50 | 1018.2 |
| 20260503205018 | 75 | 214 | 3.0 | 9.0 | 0.00 | 0.00 | 0.00 | 50 | 1018.3 |
| 20260503204018 | 75 | 215 | 2.0 | 7.0 | 0.00 | 0.00 | 0.00 | 47 | 1018.3 |
| 20260503203021 | 75 | 205 | 2.0 | 6.0 | 0.00 | 0.00 | 0.00 | 47 | 1018.4 |
| 20260503202018 | 76 | 215 | 2.0 | 6.0 | 0.00 | 0.00 | 0.00 | 46 | 1018.6 |
| 20260503201028 | 77 | 172 | 2.0 | 4.0 | 0.00 | 0.00 | 0.00 | 45 | 1018.7 |
| 20260503200027 | 77 | 348 | 1.0 | 3.0 | 0.00 | 0.00 | 0.00 | 40 | 1018.7 |
| 20260503195021 | 76 | 1 | 2.0 | 5.0 | 0.00 | 0.00 | 0.00 | 39 | 1018.9 |
| 20260503194019 | 76 | 5 | 3.0 | 8.0 | 0.00 | 0.00 | 0.00 | 40 | 1019.1 |
| 20260503193019 | 77 | 7 | 4.0 | 9.0 | 0.00 | 0.00 | 0.00 | 39 | 1019.4 |
| 20260503192028 | 77 | 359 | 2.0 | 5.0 | 0.00 | 0.00 | 0.00 | 41 | 1019.5 |
| 20260503191039 | 77 | 5 | 2.0 | 6.0 | 0.00 | 0.00 | 0.00 | 42 | 1019.7 |
| 20260503190019 | 77 | 347 | 1.0 | 4.0 | 0.00 | 0.00 | 0.00 | 43 | 1019.9 |
| 20260503185019 | 76 | 2 | 2.0 | 6.0 | 0.00 | 0.00 | 0.00 | 39 | 1019.9 |
| 20260503184020 | 76 | 353 | 2.0 | 7.0 | 0.00 | 0.00 | 0.00 | 40 | 1020.2 |
| 20260503183017 | 76 | 343 | 1.0 | 4.0 | 0.00 | 0.00 | 0.00 | 41 | 1020.2 |
| 20260503182020 | 75 | 346 | 1.0 | 6.0 | 0.00 | 0.00 | 0.00 | 41 | 1020.3 |
| 20260503181020 | 76 | 358 | 2.0 | 6.0 | 0.00 | 0.00 | 0.00 | 41 | 1020.4 |
| 20260503180020 | 75 | 329 | 1.0 | 4.0 | 0.00 | 0.00 | 0.00 | 41 | 1020.4 |
| 20260503175017 | 74 | 347 | 2.0 | 5.0 | 0.00 | 0.00 | 0.00 | 42 | 1020.5 |
| 20260503174021 | 75 | 4 | 2.0 | 6.0 | 0.00 | 0.00 | 0.00 | 41 | 1020.5 |
| 20260503173021 | 74 | 352 | 1.0 | 7.0 | 0.00 | 0.00 | 0.00 | 42 | 1020.6 |
| 20260503172021 | 73 | 2 | 2.0 | 7.0 | 0.00 | 0.00 | 0.00 | 42 | 1020.7 |
| 20260503171021 | 74 | 355 | 4.0 | 7.0 | 0.00 | 0.00 | 0.00 | 41 | 1020.8 |
| 20260503131039 | 62 | 337 | 2.0 | 5.0 | 0.00 | 0.00 | 0.00 | 67 | 1021.2 |